{"data":{"norad_id":58875,"intl_designator":"2024-019Y","name":"STARLINK-31212","alt_names":[],"object_type":"PAYLOAD","status":"ACTIVE","operator":null,"country":"US","launch_date":"2024-01-29","launch_site_code":"AFETR","launch_vehicle":null,"mission":null,"orbit_class":"UNKNOWN","rcs_meters":null,"size_class":null,"mass_kg":null,"dimensions":null,"purposes":["comms"],"wikipedia_slug":null,"has_3d_model":false,"image_url":null,"decayed_at":null,"tle_current":{"epoch":"2026-05-25T02:34:53.984064Z","epoch_age_seconds":61831,"freshness":"FRESH","line1":"1 58875U 24019Y   26145.10756926 -.00000113  00000+0  54168-5 0  9997","line2":"2 58875  43.0010 177.0016 0001260 275.4921  84.5787 15.27574920130751","mean_motion":15.2757492,"eccentricity":0.000126,"inclination_deg":43.001,"raan_deg":177.0016,"arg_perigee_deg":275.4921,"mean_anomaly_deg":84.5787,"bstar":5.4168e-6,"rev_number":13075,"period_min":94.267062200786,"perigee_km":482.19979606459,"apogee_km":483.92881879406,"semimajor_km":6861.2013074293,"source":"CELESTRAK","updated_at":"2026-05-25T13:38:18.781398Z"}}}